[[{"header":{"parameterUnit":"m.s-1","parameterCategory":1,"la1":30.2991,"la2":30.254,"lo1":-89.0895,"lo2":-89.0444,"dy":0.0017,"dx":0.0017,"nx":28,"ny":28,"refTime":"2024-07-29T09:00:00:Z","depth":0,"parameterNumber":2,"parameterNumberName":"U-component_of_WINDS"},"data":[0,0,0,0,0,0,0,0,0,0,0,0,0,0,0,0,0,0,0,0,0,0,0,0,0,0,0,0,0,0,0,0,0,0,0,0,0,0,0,0,0,0,0,0,0,0,0,0,0,0,0,0,0,0,0,0,0,0,2.0952,2.0953,0,2.1086,2.1088,2.1089,2.1084,2.1082,2.108,2.1079,2.1224,2.1229,2.1235,0,0,0,0,0,0,0,0,0,0,0,0,0,2.0696,2.0701,2.0952,2.0953,2.0955,2.1086,2.1088,2.109,2.1084,2.1082,2.108,2.1078,2.1222,2.1228,2.1235,0,0,0,0,0,0,0,0,0,0,0,0,0,2.0817,2.0703,2.0951,2.0968,2.0971,2.1086,2.1088,2.109,2.1085,2.1082,2.1079,2.1077,2.122,2.1228,2.1236,2.1345,0,0,2.1262,2.1266,0,0,0,0,0,0,0,0,2.081,2.0826,2.0964,2.0967,2.097,2.1065,2.1051,2.1176,2.1086,2.1042,2.1078,2.1075,2.1174,2.1186,2.1218,2.1352,2.1358,2.1263,2.1268,2.1271,2.1274,0,0,0,0,0,0,0,2.0802,2.0821,2.1005,2.0966,2.097,2.0971,2.0985,2.1075,2.1122,2.1045,2.1045,2.1061,2.1175,2.1209,2.1221,2.1361,2.1262,2.127,2.1275,2.1278,2.1592,2.1595,0,0,0,0,0,0,2.0789,2.0814,2.1001,2.1009,2.0881,2.0978,2.0993,2.1038,2.1121,2.1131,2.1063,2.106,2.1196,2.1211,2.1226,2.1359,2.1271,2.1279,2.1284,2.1589,2.1593,2.1596,0,0,0,0,0,0,2.0783,2.0806,2.0995,2.0911,2.0935,2.0985,2.1035,2.1042,2.1076,2.1135,2.1144,2.1089,2.1195,2.1214,2.1315,2.1364,2.1283,2.1291,2.1585,2.159,2.1595,2.1627,0,0,0,0,0,0,2.0776,2.0804,2.0844,2.0912,2.094,2.1081,2.1038,2.1047,2.109,2.1087,2.1161,2.1171,2.1194,2.1303,2.1324,2.1375,2.1297,2.1581,2.1587,2.1593,2.1622,2.1632,2.1642,0,0,0,0,0,2.0767,2.085,2.0846,2.0869,2.0991,2.1083,2.1099,2.1122,2.1094,2.1136,2.1174,2.1169,2.1355,2.1313,2.1337,2.1391,2.1578,2.1585,2.1593,2.1617,2.163,2.1641,0,0,0,0,0,0,2.0789,2.0859,2.0856,2.0962,2.1017,2.1082,2.1136,2.1135,2.12,2.1195,2.1223,2.1239,2.1341,2.1376,2.1328,2.1501,2.1463,2.1476,2.1474,2.1487,2.1497,2.1486,2.1304,0,0,0,0,0,2.0805,2.0872,2.0931,2.1019,2.1046,2.1086,2.1127,2.114,2.1198,2.1222,2.1267,2.1325,2.1397,2.1444,2.1513,2.1627,2.1643,2.1676,2.1686,2.1693,2.1704,2.1767,2.1782,2.162,2.162,2.162,0,0,2.0842,2.0888,2.0929,2.1025,2.1068,2.1138,2.1106,2.1182,2.1235,2.1234,2.1331,2.1367,2.1434,2.1541,2.1591,2.1574,2.1752,2.1703,2.1708,2.1715,2.1776,2.1791,2.1805,2.1625,2.1624,2.1624,0,0,2.0943,2.0985,2.1063,2.1106,2.1172,2.1198,2.1216,2.1282,2.1305,2.1402,2.1403,2.1468,2.1591,2.1638,2.1679,2.1798,2.1796,2.182,2.1872,2.1933,2.1945,2.1957,2.2,2.2015,2.183,2.1831,2.1831,0,2.0981,2.1084,2.1104,2.118,2.1222,2.1222,2.1302,2.1345,2.143,2.1461,2.1439,2.1593,2.1639,2.1757,2.1786,2.1819,2.1842,2.1812,2.1942,2.1953,2.1964,2.2005,2.2021,2.1833,2.1833,2.1832,2.1832,0,2.1127,2.1199,2.1255,2.1335,2.1384,2.1462,2.1495,2.1542,2.155,2.1579,2.1679,2.1733,2.1813,2.1843,2.1853,2.1963,2.195,2.1935,2.1898,2.1982,2.2021,2.2037,2.1837,2.1836,2.1835,2.1834,0,0,2.1247,2.1335,2.1356,2.1392,2.1463,2.1521,2.1599,2.1675,2.1715,2.1775,2.1842,2.1946,2.1931,2.1977,2.1993,2.2046,2.2137,2.2025,2.2027,2.2044,2.2263,2.2274,2.2291,2.2136,2.2139,2.2141,2.2257,0,2.1356,2.1493,2.1512,2.1634,2.1701,2.1702,2.177,2.1823,2.1852,2.1915,2.1948,2.202,2.1996,2.2024,2.2077,2.2115,2.2181,2.2107,2.22,2.2203,2.2183,2.2312,2.2324,2.243,2.2272,2.2275,2.2277,0,2.1502,2.1562,2.169,2.1751,2.1781,2.1841,2.1912,2.1972,2.2032,2.205,2.21,2.2108,2.2192,2.215,2.2265,2.2214,2.2254,2.2278,2.2283,2.2293,2.2245,2.2326,2.2465,2.2481,2.2301,2.2299,2.2298,0,2.1577,2.169,2.1781,2.1812,2.1886,2.1929,2.1963,2.2019,2.2064,2.2127,2.2156,2.2228,2.2269,2.2325,2.2354,2.2321,2.2468,2.2428,2.2486,2.2485,2.2517,2.2515,2.2665,2.2542,2.2542,2.2542,2.2541,0,2.1697,2.1775,2.1815,2.1871,2.1959,2.1981,2.2068,2.2101,2.2151,2.2215,2.2221,2.2281,2.2314,2.238,2.2403,2.2495,2.2513,2.2531,2.2536,2.2531,2.2528,2.2557,2.2551,2.2546,2.2545,2.2544,2.2543,0,2.1796,2.1826,2.1924,2.1986,2.2003,2.2065,2.2119,2.2175,2.2202,2.2283,2.2303,2.2348,2.2425,2.2459,2.2555,2.257,2.2676,2.2676,2.2655,2.2657,2.2712,2.2706,2.2886,2.2911,2.2772,2.2773,2.2774,0,2.187,2.193,2.1997,2.2039,2.2073,2.2141,2.2185,2.221,2.2257,2.2329,2.2376,2.2452,2.2515,2.2638,2.2681,2.2754,2.2756,2.2814,2.2768,2.276,2.2757,2.2753,2.276,2.2823,2.2824,2.2825,2.2826,0,2.2,2.2012,2.2074,2.2142,2.2194,2.225,2.2304,2.2339,2.2372,2.2425,2.2502,2.255,2.2647,2.2723,2.2799,2.2836,2.2838,2.284,2.2858,2.2853,2.2838,2.2846,2.2678,2.2837,2.2836,2.2835,2.2834,2.2834,2.2089,2.2142,2.2197,2.2267,2.231,2.236,2.2415,2.2449,2.2513,2.2592,2.2603,2.2686,2.2745,2.2846,2.2886,2.2952,2.2938,2.2963,2.297,2.2975,2.2979,2.2827,2.2967,2.2966,2.2966,2.2966,2.2966,0,2.2219,2.2254,2.2318,2.2392,2.2448,2.2442,2.2501,2.2548,2.262,2.2674,2.2735,2.2824,2.2898,2.2946,2.3021,2.3065,2.3067,2.3084,2.3081,2.3089,2.2987,2.2965,2.308,2.308,2.308,2.308,2.308,2.308,2.2293,2.2382,2.24,2.2511,2.2546,2.2625,2.266,2.2707,2.275,2.2848,2.2909,2.2938,2.299,2.3069,2.3137,2.3149,2.3176,2.3193,2.3205,2.3109,2.3097,2.3085,2.3064,2.3199,2.3199,2.3302,2.3303,2.3304]},{"header":{"parameterUnit":"m.s-1","parameterCategory":1,"la1":30.2991,"la2":30.254,"lo1":-89.0895,"lo2":-89.0444,"dy":0.0017,"dx":0.0017,"nx":28,"ny":28,"refTime":"2024-07-29T09:00:00:Z","depth":0,"parameterNumber":3,"parameterNumberName":"V-component_of_WINDS"},"data":[0,0,0,0,0,0,0,0,0,0,0,0,0,0,0,0,0,0,0,0,0,0,0,0,0,0,0,0,0,0,0,0,0,0,0,0,0,0,0,0,0,0,0,0,0,0,0,0,0,0,0,0,0,0,0,0,0,0,3.3386,3.3386,0,3.3428,3.3428,3.3429,3.3432,3.3432,3.3431,3.3431,3.3471,3.3472,3.3474,0,0,0,0,0,0,0,0,0,0,0,0,0,3.3303,3.3305,3.3386,3.3386,3.3387,3.3428,3.3428,3.3429,3.3432,3.3432,3.3431,3.3431,3.347,3.3472,3.3474,0,0,0,0,0,0,0,0,0,0,0,0,0,3.3341,3.3305,3.3386,3.3394,3.3395,3.3427,3.3428,3.3429,3.3432,3.3432,3.3431,3.343,3.347,3.3472,3.3474,3.3501,0,0,3.3481,3.3482,0,0,0,0,0,0,0,0,3.3339,3.3344,3.3392,3.3393,3.3394,3.3424,3.3414,3.3453,3.3432,3.3418,3.3431,3.343,3.3456,3.3459,3.3468,3.3503,3.3505,3.3481,3.3482,3.3483,3.3484,0,0,0,0,0,0,0,3.3337,3.3343,3.3402,3.3392,3.3394,3.3393,3.3398,3.3421,3.344,3.3419,3.342,3.3425,3.3456,3.3466,3.3469,3.3505,3.3481,3.3483,3.3484,3.3485,3.3559,3.356,0,0,0,0,0,0,3.3333,3.334,3.3401,3.3403,3.3365,3.3395,3.34,3.3415,3.344,3.3443,3.3425,3.3425,3.3463,3.3467,3.3471,3.3501,3.3483,3.3485,3.3487,3.3559,3.3559,3.356,0,0,0,0,0,0,3.3331,3.3338,3.3399,3.3372,3.338,3.3397,3.3414,3.3416,3.3426,3.3444,3.3447,3.3432,3.3462,3.3467,3.3493,3.3502,3.3486,3.3488,3.3558,3.3559,3.356,3.3563,0,0,0,0,0,0,3.3329,3.3338,3.335,3.3372,3.3381,3.3422,3.3414,3.3418,3.343,3.343,3.3452,3.3454,3.3462,3.3489,3.3495,3.3505,3.349,3.3557,3.3558,3.3559,3.3562,3.3564,3.3566,0,0,0,0,0,3.3326,3.335,3.3351,3.3358,3.3397,3.3423,3.3428,3.3437,3.3431,3.3442,3.3453,3.3454,3.35,3.3492,3.3498,3.3509,3.3556,3.3558,3.3559,3.3562,3.3564,3.3566,0,0,0,0,0,0,3.3328,3.3353,3.3354,3.3386,3.3402,3.3424,3.3438,3.344,3.3458,3.3456,3.3466,3.3471,3.3495,3.3505,3.3495,3.3534,3.3527,3.353,3.3527,3.3529,3.3531,3.3528,3.3492,0,0,0,0,0,3.3332,3.3353,3.3373,3.3399,3.3407,3.3421,3.3433,3.3438,3.3455,3.3462,3.3475,3.349,3.3507,3.3519,3.3537,3.3563,3.3566,3.3574,3.3575,3.3577,3.3579,3.359,3.3593,3.3565,3.3565,3.3565,0,0,3.3342,3.3357,3.337,3.34,3.3413,3.3432,3.3427,3.3448,3.3461,3.3465,3.3489,3.3498,3.3515,3.3541,3.3552,3.355,3.3587,3.3579,3.358,3.3581,3.3592,3.3594,3.3597,3.3566,3.3565,3.3565,0,0,3.3367,3.3383,3.3404,3.3417,3.3436,3.3445,3.345,3.347,3.3476,3.3501,3.3502,3.3517,3.3549,3.356,3.357,3.3594,3.3595,3.36,3.3609,3.3619,3.3622,3.3624,3.363,3.3633,3.3602,3.3602,3.3602,0,3.3376,3.3406,3.3415,3.3435,3.3446,3.345,3.347,3.3481,3.3505,3.3512,3.3509,3.3545,3.3558,3.3584,3.3589,3.3598,3.3602,3.3597,3.3621,3.3623,3.3625,3.3631,3.3634,3.3602,3.3602,3.3602,3.3602,0,3.3413,3.3433,3.3448,3.347,3.3484,3.3504,3.3514,3.3526,3.3529,3.3536,3.3559,3.3573,3.3592,3.3598,3.3602,3.3624,3.3621,3.3619,3.3613,3.3628,3.3633,3.3636,3.3603,3.3602,3.3602,3.3602,0,0,3.3444,3.3468,3.3473,3.3482,3.3502,3.3517,3.3535,3.3553,3.3562,3.3577,3.3591,3.3616,3.3613,3.3624,3.3628,3.3638,3.3653,3.3634,3.3635,3.3636,3.3674,3.3675,3.3678,3.3653,3.3654,3.3654,3.3672,0,3.3469,3.3504,3.351,3.3539,3.3556,3.3557,3.3572,3.3585,3.3592,3.3606,3.3613,3.3629,3.3626,3.3632,3.3641,3.3649,3.3661,3.3648,3.3664,3.3665,3.3659,3.3681,3.3683,3.3699,3.3675,3.3675,3.3676,0,3.3505,3.352,3.355,3.3564,3.3572,3.3586,3.3601,3.3615,3.3628,3.3632,3.3642,3.3645,3.3661,3.3654,3.3675,3.3666,3.3673,3.3677,3.3678,3.3679,3.3671,3.3682,3.3705,3.3707,3.368,3.368,3.3679,0,3.3521,3.3549,3.3569,3.3577,3.3595,3.3604,3.3612,3.3624,3.3633,3.3646,3.3652,3.3666,3.3674,3.3684,3.3689,3.3684,3.3709,3.3703,3.3711,3.3711,3.3716,3.3716,3.374,3.3723,3.3723,3.3723,3.3722,0,3.3548,3.3566,3.3576,3.3589,3.3607,3.3614,3.3631,3.3639,3.3649,3.3661,3.3664,3.3675,3.3682,3.3693,3.3697,3.3713,3.3717,3.3719,3.3719,3.3718,3.3717,3.3722,3.3721,3.3723,3.3723,3.3723,3.3723,0,3.3569,3.3577,3.3599,3.3613,3.3617,3.363,3.3641,3.3652,3.3658,3.3673,3.3677,3.3686,3.3699,3.3705,3.3722,3.3725,3.3741,3.3742,3.3737,3.3737,3.3745,3.3743,3.3772,3.3775,3.3756,3.3757,3.3757,0,3.3586,3.3599,3.3613,3.3622,3.3629,3.3643,3.3652,3.3658,3.3667,3.368,3.3689,3.3702,3.3713,3.3734,3.3741,3.3753,3.3753,3.3762,3.3755,3.3752,3.3751,3.375,3.375,3.3763,3.3764,3.3764,3.3764,0,3.3613,3.3615,3.3628,3.3642,3.3652,3.3663,3.3674,3.368,3.3687,3.3697,3.371,3.3719,3.3735,3.3747,3.3759,3.3765,3.3765,3.3766,3.3768,3.3766,3.3762,3.3763,3.3739,3.3765,3.3765,3.3765,3.3765,3.3765,3.363,3.3641,3.3652,3.3666,3.3674,3.3683,3.3693,3.3699,3.3711,3.3724,3.3727,3.374,3.375,3.3765,3.3772,3.3781,3.3779,3.3783,3.3783,3.3784,3.3783,3.3761,3.3784,3.3783,3.3783,3.3783,3.3783,0,3.3656,3.3662,3.3675,3.3689,3.3698,3.3698,3.3708,3.3716,3.3728,3.3737,3.3747,3.3761,3.3773,3.378,3.379,3.3797,3.3797,3.3799,3.3798,3.3799,3.3786,3.3782,3.3799,3.3799,3.3799,3.3799,3.3799,3.3799,3.367,3.3687,3.369,3.371,3.3716,3.3729,3.3735,3.3742,3.3749,3.3765,3.3774,3.3779,3.3786,3.3797,3.3806,3.3808,3.3811,3.3813,3.3815,3.3802,3.38,3.3799,3.3795,3.3814,3.3814,3.3827,3.3827,3.3827]}]]